User: anonymous   Login
Location: Unspecified
(0.0000°N, 0.0000°E)
Time: 04:46:05
(UTC+02:00)
Language:

Meteor 1-31 Rocket - Orbit

View from above orbital plane
View from above orbital plane
View from above satellite
View from above satellite

Ground track
Ground track

The orbit data is extracted from the following two-line orbital elements,

1 12586U 81065B   14297.46787669  .00004171  00000-0  28392-3 0  5040
2 12586 097.4112 291.3720 0018709 280.2999 079.6119 15.06688477810729
Epoch (UTC): 24 October 2014 11:13:44
Eccentricity: 0.0018709
inclination: 97.4112°
perigee height: 533 km
apogee height: 559 km
right ascension of ascending node: 291.3720°
argument of perigee: 280.2999°
revolutions per day: 15.06688477
mean anomaly at epoch: 79.6119°
orbit number at epoch: 81072

The dashed part of the orbit path shows where the satellite is in the earth's shadow,  

DLR